星链-2268 (STARLINK-2268 )

导读

STARLINK-2268是美国太空探索技术公司Starlink星链卫星互联网项目的成员,于2021年3月24日发射升空,作为星链星座组网卫星,其主要任务是为全球用户提供低延迟、高速率的宽带互联网服务,该卫星属于低轨通信卫星,补充完善了星链低轨卫星星座的全球覆盖能力。

基本信息
目录编号:
48030
目录名称:
STARLINK-2268
国际标识:
2021-024BF
轨道中心:
EARTH
卫星名称:
星链-2268
卫星全名:
星链-2268 (STARLINK-2268 )
卫星状态:
已陨落 最后检测时间 2025-01-17
发射日期:
2021-03-24 UTC
国别 :
美国 (US)
星等 :
--
该卫星已列入 空间交会检测服务 Space Conjunction Data Service (SCDS) ,当前飞行风险评估等级: 无高风险
轨道信息
数据来源 国际轨道数据
星历时间: 2025-01-17T21:14:27+0800
轨道信息已过期601天
半长轴: 6546.442km
偏心率: 0.0005318
轨道倾角: 53.037°
近地点辐角 35.022°
升交点赤经 22.514°
平近点角 67.512°
近地点: 164.825km
远地点: 171.789km
周期: 87.855分钟
每日圈数: 16.3906
详细信息
固有亮度:
5
最大亮度:
2.5
卫星平台:
Starlink V1.0
覆盖范围:
全球
运营商:
太空探索技术公司
运营商所在国:
美国
制造商(研发单位):
太空探索技术公司
制造商所在国:
美国
使用方式:
暂无
卫星简介
星链(Starlink)计划是由太空探索技术公司(SpaceX)提出的一个巨型低轨卫星互联网星座项目,计划在2019年至2024年间在太空搭建由约1.2万颗卫星组成的“星链”网络,其中1584颗将部署在地球上空550千米处的近地轨道,并从2020年开始工作。该卫星仍在工作。
与全量物体交会距离演化趋势
与全量物体交会风险概率演化趋势